Location: Góry Miechowskie
(50.3599°N, 20.1803°E)
Time: 21:41:34
(UTC+00:00)

Tiros 1 despin weight - Pass Details

Date: 17 September 2024
Orbit: 572 x 614 km, 48.2° (Epoch: 12 October)

Event Time Altitude Azimuth Distance (km) Brightness Sun altitude
Rises 04:08:23 0° 268° (W) 2,880 - -2.4°
Exits shadow 04:09:06 - 267° (W) 2,598 ? -2.3°
Reaches altitude 10° 04:10:42 10° 266° (W) 1,978 ? -2.1°
Maximum altitude 04:15:13 67° 184° (S) 671 ? -1.4°
Drops below altitude 10° 04:19:44 10° 102° (ESE) 1,977 ? -0.6°
Sets 04:22:03 0° 100° (E) 2,879 ? -0.3°
